Year,Month,Day,Hour,Minute,Value (Times are PST for temperature in C)
2011,02,04,00,00,7.50
2011,02,04,00,01,7.50
2011,02,04,00,02,7.50
2011,02,04,00,03,7.50
2011,02,04,00,04,7.50
2011,02,04,00,05,7.50
2011,02,04,00,06,7.50
2011,02,04,00,07,7.50
2011,02,04,00,08,7.40
2011,02,04,00,09,7.40
2011,02,04,00,10,7.40
2011,02,04,00,11,7.40
2011,02,04,00,12,7.40
2011,02,04,00,13,7.40
2011,02,04,00,14,7.40
2011,02,04,00,15,7.40
2011,02,04,00,16,7.40
2011,02,04,00,17,7.40
2011,02,04,00,18,7.30
2011,02,04,00,19,7.30
2011,02,04,00,20,7.30
2011,02,04,00,21,7.30
2011,02,04,00,22,7.30
2011,02,04,00,23,7.20
2011,02,04,00,24,7.20
2011,02,04,00,25,7.20
2011,02,04,00,26,7.20
2011,02,04,00,27,7.20
2011,02,04,00,28,7.30
2011,02,04,00,29,7.30
2011,02,04,00,30,7.30
2011,02,04,00,31,7.30
2011,02,04,00,32,7.30
2011,02,04,00,33,7.30
2011,02,04,00,34,7.30
2011,02,04,00,35,7.30
2011,02,04,00,36,7.30
2011,02,04,00,37,7.30
2011,02,04,00,38,7.40
2011,02,04,00,39,7.40
2011,02,04,00,40,7.40
2011,02,04,00,41,7.40
2011,02,04,00,42,7.50
2011,02,04,00,43,7.50
2011,02,04,00,44,7.50
2011,02,04,00,45,7.50
2011,02,04,00,46,7.50
2011,02,04,00,47,7.50
2011,02,04,00,48,7.50
2011,02,04,00,49,7.50
2011,02,04,00,50,7.50
2011,02,04,00,51,7.50
2011,02,04,00,52,7.50
2011,02,04,00,53,7.50
2011,02,04,00,54,7.50
2011,02,04,00,55,7.50
2011,02,04,00,56,7.50
2011,02,04,00,57,7.40
2011,02,04,00,58,7.40
2011,02,04,00,59,7.40
2011,02,04,01,00,7.40
2011,02,04,01,01,7.40
2011,02,04,01,02,7.40
2011,02,04,01,03,7.40
2011,02,04,01,04,7.40
2011,02,04,01,05,7.40
2011,02,04,01,06,7.40
2011,02,04,01,07,7.40
2011,02,04,01,08,7.30
2011,02,04,01,09,7.30
2011,02,04,01,10,7.30
2011,02,04,01,11,7.30
2011,02,04,01,12,7.30
2011,02,04,01,13,7.30
2011,02,04,01,14,7.30
2011,02,04,01,15,7.30
2011,02,04,01,16,7.30
2011,02,04,01,17,7.30
2011,02,04,01,18,7.30
2011,02,04,01,19,7.30
2011,02,04,01,20,7.30
2011,02,04,01,21,7.20
2011,02,04,01,22,7.20
2011,02,04,01,23,7.20
2011,02,04,01,24,7.20
2011,02,04,01,25,7.20
2011,02,04,01,26,7.20
2011,02,04,01,27,7.20
2011,02,04,01,28,7.20
2011,02,04,01,29,7.20
2011,02,04,01,30,7.20
2011,02,04,01,31,7.10
2011,02,04,01,32,7.10
2011,02,04,01,33,7.10
2011,02,04,01,34,7.20
2011,02,04,01,35,7.10
2011,02,04,01,36,7.10
2011,02,04,01,37,7.10
2011,02,04,01,38,7.10
2011,02,04,01,39,7.10
2011,02,04,01,40,7.10
2011,02,04,01,41,7.10
2011,02,04,01,42,7.10
2011,02,04,01,43,7.10
2011,02,04,01,44,7.10
2011,02,04,01,45,7.10
2011,02,04,01,46,7.10
2011,02,04,01,47,7.10
2011,02,04,01,48,7.10
2011,02,04,01,49,7.10
2011,02,04,01,50,7.10
2011,02,04,01,51,7.10
2011,02,04,01,52,7.10
2011,02,04,01,53,7.10
2011,02,04,01,54,7.10
2011,02,04,01,55,7.10
2011,02,04,01,56,7.10
2011,02,04,01,57,7.20
2011,02,04,01,58,7.10
2011,02,04,01,59,7.10
2011,02,04,02,00,7.10
2011,02,04,02,01,7.10
2011,02,04,02,02,7.10
2011,02,04,02,03,7.10
2011,02,04,02,04,7.10
2011,02,04,02,05,7.20
2011,02,04,02,06,7.20
2011,02,04,02,07,7.20
2011,02,04,02,08,7.20
2011,02,04,02,09,7.20
2011,02,04,02,10,7.20
2011,02,04,02,11,7.20
2011,02,04,02,12,7.20
2011,02,04,02,13,7.20
2011,02,04,02,14,7.20
2011,02,04,02,15,7.30
2011,02,04,02,16,7.30
2011,02,04,02,17,7.30
2011,02,04,02,18,7.30
2011,02,04,02,19,7.30
2011,02,04,02,20,7.30
2011,02,04,02,21,7.30
2011,02,04,02,22,7.30
2011,02,04,02,23,7.30
2011,02,04,02,24,7.30
2011,02,04,02,25,7.30
2011,02,04,02,26,7.30
2011,02,04,02,27,7.30
2011,02,04,02,28,7.30
2011,02,04,02,29,7.30
2011,02,04,02,30,7.20
2011,02,04,02,31,7.20
2011,02,04,02,32,7.20
2011,02,04,02,33,7.20
2011,02,04,02,34,7.20
2011,02,04,02,35,7.20
2011,02,04,02,36,7.20
2011,02,04,02,37,7.20
2011,02,04,02,38,7.20
2011,02,04,02,39,7.20
2011,02,04,02,40,7.20
2011,02,04,02,41,7.20
2011,02,04,02,42,7.20
2011,02,04,02,43,7.30
2011,02,04,02,44,7.30
2011,02,04,02,45,7.30
2011,02,04,02,46,7.30
2011,02,04,02,47,7.30
2011,02,04,02,48,7.30
2011,02,04,02,49,7.30
2011,02,04,02,50,7.30
2011,02,04,02,51,7.30
2011,02,04,02,52,7.30
2011,02,04,02,53,7.30
2011,02,04,02,54,7.30
2011,02,04,02,55,7.30
2011,02,04,02,56,7.30
2011,02,04,02,57,7.30
2011,02,04,02,58,7.30
2011,02,04,02,59,7.20
2011,02,04,03,00,7.20
2011,02,04,03,01,7.30
2011,02,04,03,02,7.30
2011,02,04,03,03,7.30
2011,02,04,03,04,7.30
2011,02,04,03,05,7.30
2011,02,04,03,06,7.40
2011,02,04,03,07,7.40
2011,02,04,03,08,7.40
2011,02,04,03,09,7.50
2011,02,04,03,10,7.50
2011,02,04,03,11,7.60
2011,02,04,03,12,7.60
2011,02,04,03,13,7.60
2011,02,04,03,14,7.70
2011,02,04,03,15,7.70
2011,02,04,03,16,7.70
2011,02,04,03,17,7.70
2011,02,04,03,18,7.80
2011,02,04,03,19,7.80
2011,02,04,03,20,7.80
2011,02,04,03,21,7.80
2011,02,04,03,22,7.80
2011,02,04,03,23,7.80
2011,02,04,03,24,7.80
2011,02,04,03,25,7.80
2011,02,04,03,26,7.80
2011,02,04,03,27,7.90
2011,02,04,03,28,7.90
2011,02,04,03,29,7.80
2011,02,04,03,30,7.80
2011,02,04,03,31,7.80
2011,02,04,03,32,7.80
2011,02,04,03,33,7.80
2011,02,04,03,34,7.70
2011,02,04,03,35,7.80
2011,02,04,03,36,7.80
2011,02,04,03,37,7.80
2011,02,04,03,38,7.80
2011,02,04,03,39,7.80
2011,02,04,03,40,7.80
2011,02,04,03,41,7.80
2011,02,04,03,42,7.80
2011,02,04,03,43,7.80
2011,02,04,03,44,7.80
2011,02,04,03,45,7.80
2011,02,04,03,46,7.80
2011,02,04,03,47,7.80
2011,02,04,03,48,7.80
2011,02,04,03,49,7.80
2011,02,04,03,50,7.80
2011,02,04,03,51,7.80
2011,02,04,03,52,7.80
2011,02,04,03,53,7.80
2011,02,04,03,54,7.80
2011,02,04,03,55,7.80
2011,02,04,03,56,7.80
2011,02,04,03,57,7.80
2011,02,04,03,58,7.80
2011,02,04,03,59,7.80
2011,02,04,04,00,7.80
2011,02,04,04,01,7.80
2011,02,04,04,02,7.80
2011,02,04,04,03,7.80
2011,02,04,04,04,7.80
2011,02,04,04,05,7.80
2011,02,04,04,06,7.80
2011,02,04,04,07,7.80
2011,02,04,04,08,7.80
2011,02,04,04,09,7.80
2011,02,04,04,10,7.80
2011,02,04,04,11,7.80
2011,02,04,04,12,7.80
2011,02,04,04,13,7.80
2011,02,04,04,14,7.80
2011,02,04,04,15,7.80
2011,02,04,04,16,7.80
2011,02,04,04,17,7.80
2011,02,04,04,18,7.80
2011,02,04,04,19,7.80
2011,02,04,04,20,7.80
2011,02,04,04,21,7.80
2011,02,04,04,22,7.70
2011,02,04,04,23,7.70
2011,02,04,04,24,7.70
2011,02,04,04,25,7.70
2011,02,04,04,26,7.70
2011,02,04,04,27,7.70
2011,02,04,04,28,7.60
2011,02,04,04,29,7.60
2011,02,04,04,30,7.60
2011,02,04,04,31,7.60
2011,02,04,04,32,7.60
2011,02,04,04,33,7.60
2011,02,04,04,34,7.50
2011,02,04,04,35,7.50
2011,02,04,04,36,7.40
2011,02,04,04,37,7.40
2011,02,04,04,38,7.30
2011,02,04,04,39,7.30
2011,02,04,04,40,7.20
2011,02,04,04,41,7.20
2011,02,04,04,42,7.20
2011,02,04,04,43,7.20
2011,02,04,04,44,7.20
2011,02,04,04,45,7.20
2011,02,04,04,46,7.20
2011,02,04,04,47,7.20
2011,02,04,04,48,7.20
2011,02,04,04,49,7.20
2011,02,04,04,50,7.20
2011,02,04,04,51,7.20
2011,02,04,04,52,7.20
2011,02,04,04,53,7.30
2011,02,04,04,54,7.30
2011,02,04,04,55,7.30
2011,02,04,04,56,7.30
2011,02,04,04,57,7.30
2011,02,04,04,58,7.30
2011,02,04,04,59,7.30
2011,02,04,05,00,7.30
2011,02,04,05,01,7.30
2011,02,04,05,02,7.30
2011,02,04,05,03,7.30
2011,02,04,05,04,7.30
2011,02,04,05,05,7.30
2011,02,04,05,06,7.30
2011,02,04,05,07,7.20
2011,02,04,05,08,7.20
2011,02,04,05,09,7.20
2011,02,04,05,10,7.20
2011,02,04,05,11,7.30
2011,02,04,05,12,7.30
2011,02,04,05,13,7.30
2011,02,04,05,14,7.40
2011,02,04,05,15,7.40
2011,02,04,05,16,7.40
2011,02,04,05,17,7.50
2011,02,04,05,18,7.50
2011,02,04,05,19,7.60
2011,02,04,05,20,7.60
2011,02,04,05,21,7.60
2011,02,04,05,22,7.60
2011,02,04,05,23,7.70
2011,02,04,05,24,7.70
2011,02,04,05,25,7.70
2011,02,04,05,26,7.70
2011,02,04,05,27,7.70
2011,02,04,05,28,7.70
2011,02,04,05,29,7.80
2011,02,04,05,30,7.80
2011,02,04,05,31,7.80
2011,02,04,05,32,7.90
2011,02,04,05,33,7.90
2011,02,04,05,34,7.90
2011,02,04,05,35,7.90
2011,02,04,05,36,7.90
2011,02,04,05,37,7.90
2011,02,04,05,38,7.90
2011,02,04,05,39,7.90
2011,02,04,05,40,7.90
2011,02,04,05,41,7.90
2011,02,04,05,42,7.90
2011,02,04,05,43,7.90
2011,02,04,05,44,7.90
2011,02,04,05,45,7.90
2011,02,04,05,46,8.00
2011,02,04,05,47,8.00
2011,02,04,05,48,7.90
2011,02,04,05,49,7.90
2011,02,04,05,50,8.00
2011,02,04,05,51,7.90
2011,02,04,05,52,8.00
2011,02,04,05,53,8.00
2011,02,04,05,54,8.00
2011,02,04,05,55,8.00
2011,02,04,05,56,8.00
2011,02,04,05,57,8.00
2011,02,04,05,58,8.00
2011,02,04,05,59,8.00
2011,02,04,06,00,8.00
2011,02,04,06,01,8.00
2011,02,04,06,02,8.00
2011,02,04,06,03,8.00
2011,02,04,06,04,8.00
2011,02,04,06,05,8.00
2011,02,04,06,06,8.00
2011,02,04,06,07,8.00
2011,02,04,06,08,8.00
2011,02,04,06,09,8.00
2011,02,04,06,10,8.00
2011,02,04,06,11,8.00
2011,02,04,06,12,8.00
2011,02,04,06,13,8.00
2011,02,04,06,14,8.00
2011,02,04,06,15,8.00
2011,02,04,06,16,8.00
2011,02,04,06,17,8.00
2011,02,04,06,18,7.90
2011,02,04,06,19,7.90
2011,02,04,06,20,7.90
2011,02,04,06,21,7.90
2011,02,04,06,22,7.90
2011,02,04,06,23,7.90
2011,02,04,06,24,7.90
2011,02,04,06,25,7.90
2011,02,04,06,26,7.90
2011,02,04,06,27,7.90
2011,02,04,06,28,7.90
2011,02,04,06,29,7.90
2011,02,04,06,30,7.90
2011,02,04,06,31,7.90
2011,02,04,06,32,7.90
2011,02,04,06,33,7.90
2011,02,04,06,34,7.90
2011,02,04,06,35,7.90
2011,02,04,06,36,7.90
2011,02,04,06,37,7.90
2011,02,04,06,38,7.90
2011,02,04,06,39,7.90
2011,02,04,06,40,7.90
2011,02,04,06,41,8.00
2011,02,04,06,42,8.00
2011,02,04,06,43,8.00
2011,02,04,06,44,8.00
2011,02,04,06,45,8.00
2011,02,04,06,46,8.00
2011,02,04,06,47,8.00
2011,02,04,06,48,8.00
2011,02,04,06,49,8.00
2011,02,04,06,50,8.00
2011,02,04,06,51,7.90
2011,02,04,06,52,7.90
2011,02,04,06,53,7.90
2011,02,04,06,54,7.90
2011,02,04,06,55,7.90
2011,02,04,06,56,7.90
2011,02,04,06,57,7.90
2011,02,04,06,58,7.90
2011,02,04,06,59,7.90
2011,02,04,07,00,8.00
2011,02,04,07,01,8.00
2011,02,04,07,02,8.00
2011,02,04,07,03,8.00
2011,02,04,07,04,8.00
2011,02,04,07,05,8.10
2011,02,04,07,06,8.10
2011,02,04,07,07,8.10
2011,02,04,07,08,8.10
2011,02,04,07,09,8.10
2011,02,04,07,10,8.10
2011,02,04,07,11,8.20
2011,02,04,07,12,8.20
2011,02,04,07,13,8.20
2011,02,04,07,14,8.20
2011,02,04,07,15,8.30
2011,02,04,07,16,8.30
2011,02,04,07,17,8.30
2011,02,04,07,18,8.30
2011,02,04,07,19,8.30
2011,02,04,07,20,8.30
2011,02,04,07,21,8.30
2011,02,04,07,22,8.30
2011,02,04,07,23,8.30
2011,02,04,07,24,8.30
2011,02,04,07,25,8.30
2011,02,04,07,26,8.30
2011,02,04,07,27,8.30
2011,02,04,07,28,8.40
2011,02,04,07,29,8.30
2011,02,04,07,30,8.30
2011,02,04,07,31,8.30
2011,02,04,07,32,8.30
2011,02,04,07,33,8.30
2011,02,04,07,34,8.30
2011,02,04,07,35,8.30
2011,02,04,07,36,8.30
2011,02,04,07,37,8.30
2011,02,04,07,38,8.30
2011,02,04,07,39,8.30
2011,02,04,07,40,8.30
2011,02,04,07,41,8.30
2011,02,04,07,42,8.30
2011,02,04,07,43,8.40
2011,02,04,07,44,8.40
2011,02,04,07,45,8.40
2011,02,04,07,46,8.40
2011,02,04,07,47,8.40
2011,02,04,07,48,8.40
2011,02,04,07,49,8.40
2011,02,04,07,50,8.40
2011,02,04,07,51,8.40
2011,02,04,07,52,8.40
2011,02,04,07,53,8.40
2011,02,04,07,54,8.40
2011,02,04,07,55,8.40
2011,02,04,07,56,8.30
2011,02,04,07,57,8.30
2011,02,04,07,58,8.30
2011,02,04,07,59,8.30
2011,02,04,08,00,8.30
2011,02,04,08,01,8.30
2011,02,04,08,02,8.30
2011,02,04,08,03,8.30
2011,02,04,08,04,8.30
2011,02,04,08,05,8.30
2011,02,04,08,06,8.20
2011,02,04,08,07,8.20
2011,02,04,08,08,8.20
2011,02,04,08,09,8.20
2011,02,04,08,10,8.20
2011,02,04,08,11,8.20
2011,02,04,08,12,8.20
2011,02,04,08,13,8.20
2011,02,04,08,14,8.20
2011,02,04,08,15,8.20
2011,02,04,08,16,8.20
2011,02,04,08,17,8.20
2011,02,04,08,18,8.20
2011,02,04,08,19,8.30
2011,02,04,08,20,8.30
2011,02,04,08,21,8.30
2011,02,04,08,22,8.30
2011,02,04,08,23,8.30
2011,02,04,08,24,8.30
2011,02,04,08,25,8.30
2011,02,04,08,26,8.40
2011,02,04,08,27,8.40
2011,02,04,08,28,8.40
2011,02,04,08,29,8.40
2011,02,04,08,30,8.40
2011,02,04,08,31,8.40
2011,02,04,08,32,8.40
2011,02,04,08,33,8.40
2011,02,04,08,34,8.40
2011,02,04,08,35,8.40
2011,02,04,08,36,8.40
2011,02,04,08,37,8.40
2011,02,04,08,38,8.40
2011,02,04,08,39,8.40
2011,02,04,08,40,8.40
2011,02,04,08,41,8.40
2011,02,04,08,42,8.40
2011,02,04,08,43,8.40
2011,02,04,08,44,8.40
2011,02,04,08,45,8.40
2011,02,04,08,46,8.40
2011,02,04,08,47,8.40
2011,02,04,08,48,8.50
2011,02,04,08,49,8.60
2011,02,04,08,50,8.60
2011,02,04,08,51,8.70
2011,02,04,08,52,8.70
2011,02,04,08,53,8.80
2011,02,04,08,54,9.00
2011,02,04,08,55,9.10
2011,02,04,08,56,9.30
2011,02,04,08,57,9.40
2011,02,04,08,58,9.60
2011,02,04,08,59,9.80
2011,02,04,09,00,9.90
2011,02,04,09,01,10.00
2011,02,04,09,02,10.10
2011,02,04,09,03,10.20
2011,02,04,09,04,10.20
2011,02,04,09,05,10.20
2011,02,04,09,06,10.30
2011,02,04,09,07,10.30
2011,02,04,09,08,10.30
2011,02,04,09,09,10.30
2011,02,04,09,10,10.30
2011,02,04,09,11,10.40
2011,02,04,09,12,10.40
2011,02,04,09,13,10.50
2011,02,04,09,14,10.50
2011,02,04,09,15,10.60
2011,02,04,09,16,10.60
2011,02,04,09,17,10.60
2011,02,04,09,18,10.70
2011,02,04,09,19,10.70
2011,02,04,09,20,10.70
2011,02,04,09,21,10.70
2011,02,04,09,22,10.70
2011,02,04,09,23,10.70
2011,02,04,09,24,10.60
2011,02,04,09,25,10.50
2011,02,04,09,26,10.30
2011,02,04,09,27,10.20
2011,02,04,09,28,10.00
2011,02,04,09,29,9.80
2011,02,04,09,30,9.70
2011,02,04,09,31,9.60
2011,02,04,09,32,9.50
2011,02,04,09,33,9.30
2011,02,04,09,34,9.20
2011,02,04,09,35,9.10
2011,02,04,09,36,9.10
2011,02,04,09,37,9.00
2011,02,04,09,38,9.00
2011,02,04,09,39,8.90
2011,02,04,09,40,8.90
2011,02,04,09,41,8.80
2011,02,04,09,42,8.80
2011,02,04,09,43,8.80
2011,02,04,09,44,8.70
2011,02,04,09,45,8.70
2011,02,04,09,46,8.70
2011,02,04,09,47,8.70
2011,02,04,09,48,8.60
2011,02,04,09,49,8.60
2011,02,04,09,50,8.60
2011,02,04,09,51,8.60
2011,02,04,09,52,8.60
2011,02,04,09,53,8.60
2011,02,04,09,54,8.60
2011,02,04,09,55,8.60
2011,02,04,09,56,8.60
2011,02,04,09,57,8.60
2011,02,04,09,58,8.60
2011,02,04,09,59,8.60
2011,02,04,10,00,8.60
2011,02,04,10,01,8.50
2011,02,04,10,02,8.60
2011,02,04,10,03,8.50
2011,02,04,10,04,8.50
2011,02,04,10,05,8.50
2011,02,04,10,06,8.60
2011,02,04,10,07,8.60
2011,02,04,10,08,8.60
2011,02,04,10,09,8.60
2011,02,04,10,10,8.60
2011,02,04,10,11,8.60
2011,02,04,10,12,8.60
2011,02,04,10,13,8.60
2011,02,04,10,14,8.70
2011,02,04,10,15,8.70
2011,02,04,10,16,8.70
2011,02,04,10,17,8.70
2011,02,04,10,18,8.70
2011,02,04,10,19,8.70
2011,02,04,10,20,8.80
2011,02,04,10,21,8.80
2011,02,04,10,22,8.80
2011,02,04,10,23,8.90
2011,02,04,10,24,8.90
2011,02,04,10,25,8.90
2011,02,04,10,26,8.90
2011,02,04,10,27,8.90
2011,02,04,10,28,8.90
2011,02,04,10,29,8.90
2011,02,04,10,30,8.90
2011,02,04,10,31,9.00
2011,02,04,10,32,9.00
2011,02,04,10,33,9.00
2011,02,04,10,34,9.00
2011,02,04,10,35,9.00
2011,02,04,10,36,9.00
2011,02,04,10,37,9.00
2011,02,04,10,38,9.10
2011,02,04,10,39,9.10
2011,02,04,10,40,9.10
2011,02,04,10,41,9.10
2011,02,04,10,42,9.10
2011,02,04,10,43,9.10
2011,02,04,10,44,9.10
2011,02,04,10,45,9.10
2011,02,04,10,46,9.10
2011,02,04,10,47,9.10
2011,02,04,10,48,9.10
2011,02,04,10,49,9.10
2011,02,04,10,50,9.20
2011,02,04,10,51,9.20
2011,02,04,10,52,9.20
2011,02,04,10,53,9.20
2011,02,04,10,54,9.20
2011,02,04,10,55,9.30
2011,02,04,10,56,9.30
2011,02,04,10,57,9.30
2011,02,04,10,58,9.40
2011,02,04,10,59,9.40
2011,02,04,11,00,9.40
2011,02,04,11,01,9.50
2011,02,04,11,02,9.50
2011,02,04,11,03,9.60
2011,02,04,11,04,9.60
2011,02,04,11,05,9.60
2011,02,04,11,06,9.70
2011,02,04,11,07,9.70
2011,02,04,11,08,9.70
2011,02,04,11,09,9.70
2011,02,04,11,10,9.80
2011,02,04,11,11,9.80
2011,02,04,11,12,9.80
2011,02,04,11,13,9.90
2011,02,04,11,14,9.90
2011,02,04,11,15,9.90
2011,02,04,11,16,10.00
2011,02,04,11,17,10.00
2011,02,04,11,18,10.10
2011,02,04,11,19,10.20
2011,02,04,11,20,10.20
2011,02,04,11,21,10.20
2011,02,04,11,22,10.30
2011,02,04,11,23,10.30
2011,02,04,11,24,10.40
2011,02,04,11,25,10.50
2011,02,04,11,26,10.50
2011,02,04,11,27,10.60
2011,02,04,11,28,10.60
2011,02,04,11,29,10.70
2011,02,04,11,30,10.70
2011,02,04,11,31,10.80
2011,02,04,11,32,10.80
2011,02,04,11,33,10.80
2011,02,04,11,34,10.80
2011,02,04,11,35,10.80
2011,02,04,11,36,10.80
2011,02,04,11,37,10.70
2011,02,04,11,38,10.60
2011,02,04,11,39,10.50
2011,02,04,11,40,10.40
2011,02,04,11,41,10.40
2011,02,04,11,42,10.30
2011,02,04,11,43,10.30
2011,02,04,11,44,10.20
2011,02,04,11,45,10.20
2011,02,04,11,46,10.20
2011,02,04,11,47,10.20
2011,02,04,11,48,10.20
2011,02,04,11,49,10.10
2011,02,04,11,50,10.10
2011,02,04,11,51,10.10
2011,02,04,11,52,10.20
2011,02,04,11,53,10.20
2011,02,04,11,54,10.20
2011,02,04,11,55,10.20
2011,02,04,11,56,10.20
2011,02,04,11,57,10.20
2011,02,04,11,58,10.20
2011,02,04,11,59,10.20
2011,02,04,12,00,10.30
2011,02,04,12,01,10.30
2011,02,04,12,02,10.30
2011,02,04,12,03,10.30
2011,02,04,12,04,10.40
2011,02,04,12,05,10.40
2011,02,04,12,06,10.50
2011,02,04,12,07,10.60
2011,02,04,12,08,10.70
2011,02,04,12,09,10.80
2011,02,04,12,10,10.90
2011,02,04,12,11,11.00
2011,02,04,12,12,11.10
2011,02,04,12,13,11.20
2011,02,04,12,14,11.30
2011,02,04,12,15,11.40
2011,02,04,12,16,11.50
2011,02,04,12,17,11.60
2011,02,04,12,18,11.70
2011,02,04,12,19,11.80
2011,02,04,12,20,11.90
2011,02,04,12,21,11.90
2011,02,04,12,22,12.00
2011,02,04,12,23,12.00
2011,02,04,12,24,12.10
2011,02,04,12,25,12.10
2011,02,04,12,26,12.10
2011,02,04,12,27,12.10
2011,02,04,12,28,12.20
2011,02,04,12,29,12.20
2011,02,04,12,30,12.20
2011,02,04,12,31,12.20
2011,02,04,12,32,12.20
2011,02,04,12,33,12.30
2011,02,04,12,34,12.30
2011,02,04,12,35,12.30
2011,02,04,12,36,12.30
2011,02,04,12,37,12.40
2011,02,04,12,38,12.40
2011,02,04,12,39,12.40
2011,02,04,12,40,12.50
2011,02,04,12,41,12.50
2011,02,04,12,42,12.50
2011,02,04,12,43,12.60
2011,02,04,12,44,12.60
2011,02,04,12,45,12.60
2011,02,04,12,46,12.60
2011,02,04,12,47,12.70
2011,02,04,12,48,12.70
2011,02,04,12,49,12.70
2011,02,04,12,50,12.70
2011,02,04,12,51,12.70
2011,02,04,12,52,12.80
2011,02,04,12,53,12.80
2011,02,04,12,54,12.80
2011,02,04,12,55,12.80
2011,02,04,12,56,12.80
2011,02,04,12,57,12.80
2011,02,04,12,58,12.90
2011,02,04,12,59,12.90
2011,02,04,13,00,12.90
2011,02,04,13,01,12.90
2011,02,04,13,02,12.90
2011,02,04,13,03,12.90
2011,02,04,13,04,13.00
2011,02,04,13,05,13.00
2011,02,04,13,06,13.00
2011,02,04,13,07,12.90
2011,02,04,13,08,12.90
2011,02,04,13,09,12.90
2011,02,04,13,10,12.90
2011,02,04,13,11,12.90
2011,02,04,13,12,12.90
2011,02,04,13,13,12.90
2011,02,04,13,14,12.90
2011,02,04,13,15,12.90
2011,02,04,13,16,13.00
2011,02,04,13,17,13.00
2011,02,04,13,18,13.00
2011,02,04,13,19,13.10
2011,02,04,13,20,13.10
2011,02,04,13,21,13.10
2011,02,04,13,22,13.10
2011,02,04,13,23,13.10
2011,02,04,13,24,13.10
2011,02,04,13,25,13.20
2011,02,04,13,26,13.10
2011,02,04,13,27,13.20
2011,02,04,13,28,13.20
2011,02,04,13,29,13.20
2011,02,04,13,30,13.20
2011,02,04,13,31,13.20
2011,02,04,13,32,13.20
2011,02,04,13,33,13.20
2011,02,04,13,34,13.30
2011,02,04,13,35,13.30
2011,02,04,13,36,13.30
2011,02,04,13,37,13.40
2011,02,04,13,38,13.40
2011,02,04,13,39,13.50
2011,02,04,13,40,13.50
2011,02,04,13,41,13.60
2011,02,04,13,42,13.60
2011,02,04,13,43,13.60
2011,02,04,13,44,13.60
2011,02,04,13,45,13.60
2011,02,04,13,46,13.70
2011,02,04,13,47,13.70
2011,02,04,13,48,13.70
2011,02,04,13,49,13.70
2011,02,04,13,50,13.70
2011,02,04,13,51,13.70
2011,02,04,13,52,13.70
2011,02,04,13,53,13.70
2011,02,04,13,54,13.70
2011,02,04,13,55,13.70
2011,02,04,13,56,13.70
2011,02,04,13,57,13.70
2011,02,04,13,58,13.70
2011,02,04,13,59,13.70
2011,02,04,14,00,13.70
2011,02,04,14,01,13.70
2011,02,04,14,02,13.70
2011,02,04,14,03,13.70
2011,02,04,14,04,13.70
2011,02,04,14,05,13.70
2011,02,04,14,06,13.70
2011,02,04,14,07,13.70
2011,02,04,14,08,13.70
2011,02,04,14,09,13.70
2011,02,04,14,10,13.70
2011,02,04,14,11,13.70
2011,02,04,14,12,13.70
2011,02,04,14,13,13.70
2011,02,04,14,14,13.70
2011,02,04,14,15,13.70
2011,02,04,14,16,13.70
2011,02,04,14,17,13.70
2011,02,04,14,18,13.60
2011,02,04,14,19,13.60
2011,02,04,14,20,13.60
2011,02,04,14,21,13.60
2011,02,04,14,22,13.60
2011,02,04,14,23,13.60
2011,02,04,14,24,13.50
2011,02,04,14,25,13.50
2011,02,04,14,26,13.50
2011,02,04,14,27,13.40
2011,02,04,14,28,13.40
2011,02,04,14,29,13.40
2011,02,04,14,30,13.40
2011,02,04,14,31,13.40
2011,02,04,14,32,13.40
2011,02,04,14,33,13.40
2011,02,04,14,34,13.40
2011,02,04,14,35,13.40
2011,02,04,14,36,13.40
2011,02,04,14,37,13.30
2011,02,04,14,38,13.30
2011,02,04,14,39,13.30
2011,02,04,14,40,13.30
2011,02,04,14,41,13.20
2011,02,04,14,42,13.20
2011,02,04,14,43,13.20
2011,02,04,14,44,13.20
2011,02,04,14,45,13.20
2011,02,04,14,46,13.30
2011,02,04,14,47,13.30
2011,02,04,14,48,13.30
2011,02,04,14,49,13.30
2011,02,04,14,50,13.30
2011,02,04,14,51,13.30
2011,02,04,14,52,13.30
2011,02,04,14,53,13.30
2011,02,04,14,54,13.30
2011,02,04,14,55,13.30
2011,02,04,14,56,13.30
2011,02,04,14,57,13.30
2011,02,04,14,58,13.30
2011,02,04,14,59,13.30
2011,02,04,15,00,13.30
2011,02,04,15,01,13.30
2011,02,04,15,02,13.30
2011,02,04,15,03,13.30
2011,02,04,15,04,13.30
2011,02,04,15,05,13.30
2011,02,04,15,06,13.30
2011,02,04,15,07,13.30
2011,02,04,15,08,13.30
2011,02,04,15,09,13.30
2011,02,04,15,10,13.30
2011,02,04,15,11,13.30
2011,02,04,15,12,13.30
2011,02,04,15,13,13.30
2011,02,04,15,14,13.30
2011,02,04,15,15,13.30
2011,02,04,15,16,13.30
2011,02,04,15,17,13.30
2011,02,04,15,18,13.30
2011,02,04,15,19,13.30
2011,02,04,15,20,13.40
2011,02,04,15,21,13.40
2011,02,04,15,22,13.40
2011,02,04,15,23,13.40
2011,02,04,15,24,13.40
2011,02,04,15,25,13.30
2011,02,04,15,26,13.30
2011,02,04,15,27,13.30
2011,02,04,15,28,13.30
2011,02,04,15,29,13.30
2011,02,04,15,30,13.30
2011,02,04,15,31,13.30
2011,02,04,15,32,13.30
2011,02,04,15,33,13.30
2011,02,04,15,34,13.30
2011,02,04,15,35,13.30
2011,02,04,15,36,13.30
2011,02,04,15,37,13.30
2011,02,04,15,38,13.30
2011,02,04,15,39,13.30
2011,02,04,15,40,13.30
2011,02,04,15,41,13.30
2011,02,04,15,42,13.30
2011,02,04,15,43,13.30
2011,02,04,15,44,13.30
2011,02,04,15,45,13.30
2011,02,04,15,46,13.30
2011,02,04,15,47,13.30
2011,02,04,15,48,13.20
2011,02,04,15,49,13.20
2011,02,04,15,50,13.10
2011,02,04,15,51,13.10
2011,02,04,15,52,13.00
2011,02,04,15,53,13.00
2011,02,04,15,54,12.90
2011,02,04,15,55,12.80
2011,02,04,15,56,12.80
2011,02,04,15,57,12.80
2011,02,04,15,58,12.80
2011,02,04,15,59,12.70
2011,02,04,16,00,12.70
2011,02,04,16,01,12.70
2011,02,04,16,02,12.70
2011,02,04,16,03,12.70
2011,02,04,16,04,12.60
2011,02,04,16,05,12.60
2011,02,04,16,06,12.60
2011,02,04,16,07,12.60
2011,02,04,16,08,12.60
2011,02,04,16,09,12.60
2011,02,04,16,10,12.50
2011,02,04,16,11,12.50
2011,02,04,16,12,12.60
2011,02,04,16,13,12.50
2011,02,04,16,14,12.50
2011,02,04,16,15,12.50
2011,02,04,16,16,12.50
2011,02,04,16,17,12.50
2011,02,04,16,18,12.40
2011,02,04,16,19,12.40
2011,02,04,16,20,12.40
2011,02,04,16,21,12.40
2011,02,04,16,22,12.40
2011,02,04,16,23,12.30
2011,02,04,16,24,12.30
2011,02,04,16,25,12.30
2011,02,04,16,26,12.30
2011,02,04,16,27,12.30
2011,02,04,16,28,12.30
2011,02,04,16,29,12.20
2011,02,04,16,30,12.20
2011,02,04,16,31,12.20
2011,02,04,16,32,12.20
2011,02,04,16,33,12.20
2011,02,04,16,34,12.20
2011,02,04,16,35,12.20
2011,02,04,16,36,12.20
2011,02,04,16,37,12.10
2011,02,04,16,38,12.10
2011,02,04,16,39,12.10
2011,02,04,16,40,12.10
2011,02,04,16,41,12.10
2011,02,04,16,42,12.10
2011,02,04,16,43,12.00
2011,02,04,16,44,12.00
2011,02,04,16,45,12.00
2011,02,04,16,46,12.00
2011,02,04,16,47,11.90
2011,02,04,16,48,11.90
2011,02,04,16,49,11.90
2011,02,04,16,50,11.90
2011,02,04,16,51,11.90
2011,02,04,16,52,11.90
2011,02,04,16,53,11.90
2011,02,04,16,54,11.90
2011,02,04,16,55,11.90
2011,02,04,16,56,11.90
2011,02,04,16,57,11.90
2011,02,04,16,58,11.80
2011,02,04,16,59,11.80
2011,02,04,17,00,11.80
2011,02,04,17,01,11.80
2011,02,04,17,02,11.70
2011,02,04,17,03,11.70
2011,02,04,17,04,11.70
2011,02,04,17,05,11.70
2011,02,04,17,06,11.70
2011,02,04,17,07,11.70
2011,02,04,17,08,11.70
2011,02,04,17,09,11.70
2011,02,04,17,10,11.60
2011,02,04,17,11,11.60
2011,02,04,17,12,11.60
2011,02,04,17,13,11.60
2011,02,04,17,14,11.60
2011,02,04,17,15,11.60
2011,02,04,17,16,11.60
2011,02,04,17,17,11.60
2011,02,04,17,18,11.60
2011,02,04,17,19,11.60
2011,02,04,17,20,11.60
2011,02,04,17,21,11.60
2011,02,04,17,22,11.60
2011,02,04,17,23,11.50
2011,02,04,17,24,11.50
2011,02,04,17,25,11.50
2011,02,04,17,26,11.50
2011,02,04,17,27,11.40
2011,02,04,17,28,11.40
2011,02,04,17,29,11.40
2011,02,04,17,30,11.40
2011,02,04,17,31,11.40
2011,02,04,17,32,11.30
2011,02,04,17,33,11.30
2011,02,04,17,34,11.30
2011,02,04,17,35,11.30
2011,02,04,17,36,11.30
2011,02,04,17,37,11.20
2011,02,04,17,38,11.20
2011,02,04,17,39,11.20
2011,02,04,17,40,11.20
2011,02,04,17,41,11.20
2011,02,04,17,42,11.20
2011,02,04,17,43,11.20
2011,02,04,17,44,11.20
2011,02,04,17,45,11.20
2011,02,04,17,46,11.10
2011,02,04,17,47,11.10